Showing default

OPS 9323 (IDSCS 10), 2650

Orbit data source: Space-Track

OPS 9323 (IDSCS 10), 2650 is a payload satellite owned by USAF SSD (US) in GEO that was launched on Wed, 18 Jan 1967 UTC via a TITAN IIIC launch vehicle from the Air Force Eastern Test Range (AFETR). Payload-class satellites include a variety of spacecraft equipped with specific instruments for various scientific and technological missions. These include communications satellites like Starlink; space stations such as the ISS; scientific satellites like the Hubble; Earth observation satellites from companies like Planet Labs, Umbra, and HawkEye 360; GPS; miniature CubeSats for education and research; and military/defense satellites.

Loading next visibility...
Identifier
2650, 1967-003C
Orbit
GEO
Last TLE update
2 days ago
Origin
Manufacturer
Philco-Ford WDL
Mission
Non-operational Defense Communications
Bus & Motor
IDCSP, Unknown motor
Mass
45 kg wet, 45 kg dry
Launch date (UTC)
1967-01-18 (59 years ago)
Launch vehicle
TITAN IIIC
Launch site
Air Force Eastern Test Range (AFETR)
Object type
Payload
Rocket body
Debris
Shape & HBR
Ico Poly, 0.5 m
Radar Cross Section
0.926 m², Medium (>0.1 m² and < 1m²)

Expand to show TLE details & history

TLE from 2 days ago
0 OPS 9323 (IDSCS 10)
1 02650U 67003C   25199.37258346 -.00000060  00000-0  00000-0 0  9990
2 02650   7.6650  47.7735 0035089 102.0464  70.7276  1.08221474136833
Epoch: 2025-07-18T08:56Z
TLE epoch observation values (Epoch: 2025-07-18T08:56:31.21Z)
Latitude
0.91614°
Longitude
150.44001°
Altitude
33,649.418 km
Speed
3.158 km/s
True Right ascension
14h 43m 58s
True Declination
0° 54' 55"
Sunlit
Object was in daylight at epoch
Visualization orbit readout
Latitude
-7.20953°
Longitude
-133.30041°
Altitude
33,815.154 km
Speed
3.145 km/s
Apparent Right ascension
19h 26m 50s
Apparent Declination
-13° 57' 13"
Sunlit
Object is in daylight
Visualization observer readout
Local Sidereal Time
22:54:15
Azimuth
233.268° WSW
Elevation
17.759°
Doppler factor
1
Orbital elements
Apogee altitude
33,837.285 km
Perigee altitude
33,556.048 km
Semi-major axis
40,074.804 km
Eccentricity
0.00351
Inclination
7.665°
RAAN
47.7735°
Arg. of periapsis
102.0464°
True anomaly
71.1077°
Mean anomaly
70.7276°
Eccentric anomaly
70.9176°
Mean motion
0.27054 °/min
Orbital period
1,330.66 mins
BSTAR
0
Loading maneuver chart data...
Loading SW <> Apogee altitude chart data...
Loading historical data...
Loading historical data...
Loading historical data...
Loading historical data...
Loading historical data...
Loading historical data...
Loading historical data...
|